CW8081 Thessaloniki GR current weather conditions

sailwx.info

Wind from 236

Air temperature 25.0° C
Dewpoint 16.7° C

Last reported at 2015-May-24 08:41 UTC.
Time now 2015-May-24 09:06 UTC

Location: N 40°34' E 022°58'.
View on Google Maps.

See reports from other nearby stations

  
Tides and Currents Weather Stations Pressure Air Temp Water Temp Dewpoint Dewpoint Depression Visibility Wind Speed Wind Dir Waves Ship Positions
date/time (UTC)wind fromknots sea level pressurealtimeterstation pressurevisibilityair tempwater tempwave heightnotes
2015-May-24 08:41 236 25.0
2015-May-24 08:31 218 5 gusting 7 25.0
2015-May-24 08:11 207 25.0
2015-May-24 08:01 216 24.4
2015-May-24 07:41 211 23.3
2015-May-24 07:31 209 23.3
2015-May-24 07:11 232 22.8
2015-May-24 07:01 214 22.8
2015-May-24 06:41 182 22.8
2015-May-24 06:31 146 22.8
2015-May-24 06:11 140 22.2
2015-May-24 06:01 175 21.7
2015-May-24 05:41 158 20.6
2015-May-24 05:31 158 20.0
2015-May-24 05:11 131 18.9
2015-May-24 05:01 121 18.9
2015-May-24 04:41 120 18.3
2015-May-24 04:31 119 17.8
2015-May-24 04:11 119 17.2
2015-May-24 04:01 119 17.2
2015-May-24 03:41 119 17.2
2015-May-24 03:31 119 17.2
2015-May-24 03:11 119 17.2
2015-May-24 03:01 119 17.2
2015-May-24 02:41 119 17.8
2015-May-24 02:31 119 17.8
2015-May-24 02:11 119 17.8
2015-May-24 02:01 119 18.3
2015-May-24 01:41 119 18.9
2015-May-24 01:31 119 18.9
2015-May-24 01:11 119 19.4
2015-May-24 01:01 119 19.4
2015-May-24 00:41 119 19.4
2015-May-24 00:31 168 19.4
2015-May-24 00:11 168 19.4
2015-May-24 00:01 168 19.4
2015-May-23 23:41 168 19.4
2015-May-23 23:31 168 19.4
2015-May-23 23:11 168 19.4
2015-May-23 23:01 168 19.4
2015-May-23 22:41 168 19.4
2015-May-23 22:31 168 20.0
2015-May-23 22:11 168 20.0
2015-May-23 22:01 168 20.6
2015-May-23 21:41 168 20.6
2015-May-23 21:31 168 20.6
2015-May-23 21:11 168 20.6
2015-May-23 21:01 168 20.6
2015-May-23 20:41 168 20.6
2015-May-23 20:31 168 21.1
2015-May-23 20:11 168 21.1
2015-May-23 20:01 168 21.1
2015-May-23 19:41 168 21.7
2015-May-23 19:31 168 21.7
2015-May-23 19:11 168 21.7
2015-May-23 19:01 168 21.7
2015-May-23 18:41 168 1 gusting 4 21.7
2015-May-23 18:31 168 22.2
2015-May-23 18:11 168 22.2
2015-May-23 18:01 165 1 gusting 6 22.2
2015-May-23 17:41 191 4 gusting 7 22.8
2015-May-23 17:31 195 2 gusting 8 23.3
2015-May-23 17:11 243 2 gusting 4 23.9
2015-May-23 17:01 244 0 gusting 5 24.4
2015-May-23 16:41 240 0 gusting 6 25.0
2015-May-23 16:31 250 25.0
2015-May-23 16:11 261 25.6
2015-May-23 16:01 257 0 gusting 5 25.6
2015-May-23 15:41 285 26.1
2015-May-23 15:11 217 26.7
2015-May-23 15:01 216 5 gusting 7 27.2
2015-May-23 14:41 225 6 gusting 10 27.2
2015-May-23 14:31 214 26.7
2015-May-23 13:41 237 6 gusting 10 27.8
2015-May-23 13:31 208 5 gusting 10 27.8
2015-May-23 13:11 261 0 gusting 10 27.2
2015-May-23 13:01 249 6 gusting 10 27.2
2015-May-23 12:41 280 5 gusting 8 26.7
2015-May-23 12:31 251 5 gusting 10 26.1
2015-May-23 12:11 262 3 gusting 10 26.7
2015-May-23 12:01 265 2 gusting 10 26.1
2015-May-23 11:31 240 6 gusting 12 25.6
2015-May-23 11:11 270 5 gusting 11 25.6
2015-May-23 11:01 252 6 gusting 10 26.1
2015-May-23 10:31 258 1 gusting 6 27.2
2015-May-23 10:11 246 0 gusting 6 27.2
2015-May-23 10:01 214 26.7
2015-May-23 09:41 239 25.6
2015-May-23 09:31 280 4 gusting 8 25.0
2015-May-23 09:11 258 4 gusting 7 25.0
2015-May-23 09:01 266 5 gusting 8 25.0
2015-May-23 08:41 222 1 gusting 7 24.4
2015-May-23 08:31 239 3 gusting 10 24.4
2015-May-23 08:11 230 2 gusting 6 25.0
2015-May-23 07:41 242 0 gusting 7 23.9
2015-May-23 07:31 211 4 gusting 6 23.9
2015-May-23 07:11 244 24.4
2015-May-23 07:01 282 23.3
2015-May-23 06:41 282 21.7
2015-May-23 06:31 295 21.7
2015-May-23 06:11 222 20.6
2015-May-23 06:01 222 20.6
2015-May-23 05:41 226 20.6
2015-May-23 05:31 244 20.6
2015-May-23 05:11 246 19.4
2015-May-23 05:01 246 18.9
2015-May-23 04:41 246 18.3
2015-May-23 04:31 246 17.8
2015-May-23 04:11 246 17.8
2015-May-23 04:01 246 17.2
2015-May-23 03:41 246 17.2
2015-May-23 03:31 246 17.2
2015-May-23 03:11 050 17.8
2015-May-23 03:01 050 17.8
2015-May-23 02:41 050 18.3
2015-May-23 02:31 050 18.3
2015-May-23 02:11 050 18.9
2015-May-23 02:01 050 18.9
2015-May-23 01:41 050 19.4
2015-May-23 01:31 050 19.4
2015-May-23 01:11 050 19.4
2015-May-23 01:01 050 19.4
2015-May-23 00:41 050 20.0
2015-May-23 00:31 050 20.0
2015-May-23 00:11 050 20.0
2015-May-23 00:01 050 20.0
2015-May-22 23:41 050 20.0
2015-May-22 23:31 050 20.0
2015-May-22 23:11 050 0 gusting 2 20.6
2015-May-22 23:01 061 0 gusting 1 20.6
2015-May-22 22:41 100 20.6
2015-May-22 22:31 100 20.6
2015-May-22 22:11 101 21.1
2015-May-22 22:01 101 21.1
2015-May-22 21:41 103 21.1
2015-May-22 21:31 103 21.1
2015-May-22 21:11 104 21.1
2015-May-22 21:01 104 1 gusting 4 21.7
2015-May-22 20:41 065 21.7
2015-May-22 20:31 065 21.7
2015-May-22 20:11 065 21.7
2015-May-22 20:01 065 21.7
2015-May-22 19:41 065 2 gusting 7 21.7
2015-May-22 19:31 059 4 gusting 5 21.7
2015-May-22 19:11 177 22.2
2015-May-22 19:01 177 22.2
2015-May-22 18:41 177 22.8
2015-May-22 18:31 077 22.8
2015-May-22 18:11 073 23.3
2015-May-22 18:01 073 23.9
2015-May-22 17:41 073 23.9
2015-May-22 17:31 073 24.4
2015-May-22 17:11 073 24.4
2015-May-22 17:01 073 24.4
2015-May-22 16:41 073 24.4
2015-May-22 16:31 073 23.9
2015-May-22 16:11 214 24.4
2015-May-22 16:01 214 24.4
2015-May-22 15:41 214 25.0
2015-May-22 15:31 214 25.6
2015-May-22 15:11 214 25.0
2015-May-22 15:01 214 24.4
2015-May-22 14:41 211 2 gusting 6 23.3
2015-May-22 14:31 223 4 gusting 7 23.3
2015-May-22 14:11 231 6 gusting 8 23.9
2015-May-22 14:01 234 5 gusting 10 23.9
2015-May-22 13:41 253 4 gusting 10 23.9
2015-May-22 13:31 232 3 gusting 10 23.9
2015-May-22 13:11 234 4 gusting 8 25.0
2015-May-22 13:01 237 25.6
2015-May-22 12:41 184 26.1
2015-May-22 12:31 146 25.0
2015-May-22 12:11 082 23.9
2015-May-22 12:01 077 23.9
2015-May-22 11:41 263 23.3
2015-May-22 11:31 263 23.3
2015-May-22 11:11 261 23.9
2015-May-22 11:01 261 24.4
2015-May-22 10:41 205 24.4
2015-May-22 10:31 109 24.4
2015-May-22 10:11 051 23.9
2015-May-22 10:01 055 24.4
2015-May-22 09:41 236 22.8
2015-May-22 09:31 256 21.7
2015-May-22 09:11 255 21.1
2015-May-22 09:01 251 21.1